Regional Weather Roundup
Issued by NWS Wakefield, VA

Home | Current Version | Previous Version | Text Only | Print | Product List | Glossary Off
Versions: 1 2 3 4 5 6 7 8 9 10 11 12 13 14 15 16 17 18 19 20 21 22 23 24 25 26 27 28 29 30 31 32 33 34 35 36 37 38 39 40 41 42 43 44 45 46 47 48 49 50

000
ASUS41 KAKQ 250214
RWRAKQ

REGIONAL WEATHER ROUNDUP
NATIONAL WEATHER SERVICE WAKEFIELD VA
1000 PM EDT SUN MAY 24 2015

Note: "fair" indicates few or no clouds below 12,000 feet with no
significant weather and/or obstructions to visibility. * = Denotes
station may not report precipitation (e.g., rain,snow,etc.),
thunder or fog.

VAZ042-051-052>054-056-250300-
NORTHERN VIRGINIA

CITY           SKY/WX    TMP DP  RH WIND       PRES   REMARKS
WASH NATIONAL  PTCLDY    74  61  63 S8        30.27R
DULLES         PTCLDY    72  56  57 S7        30.26R
FORT BELVOIR   CLEAR     66  59  77 SE3       30.27R
QUANTICO       CLEAR     73  64  73 S6        30.28R
FREDERICKSBRG* CLEAR     74  58  56 S8        30.27R
STAFFORD*      CLEAR     69  55  60 CALM      30.31R
WARRENTON      CLEAR     72  58  63 S5        30.26R
CULPEPER*      FAIR      70  56  61 CALM      30.27R
MANASSAS*      CLEAR     70  57  64 S3        30.26R
LEESBURG*      CLEAR     73  59  60 S7        30.27R
WINCHESTER     CLEAR     68  52  56 S5        30.25R
FRONT ROYAL*   FAIR      70  54  56 S3        30.24R
LURAY*         FAIR      66  57  72 S3        30.26R
$$

VAZ048-049-060>072-079>083-250300-
CENTRAL AND SOUTH CENTRAL VIRGINIA

CITY           SKY/WX    TMP DP  RH WIND       PRES   REMARKS
RICHMOND       PTCLDY    69  57  65 S5        30.30R
CHESTERFIELD*  NOT AVBL
PETERSBURG*    CLEAR     62  60  92 CALM      30.31R
HANOVER        CLEAR     67  56  67 S3        30.30R
TAPPAHANNOCK*  CLEAR     68  54  60 S3        30.30R
QUINTON*       FAIR      67  60  77 CALM      30.30R
CHARLOTTSVILLE CLEAR     67  55  65 S8        30.28R
GORDONSVILLE*  FAIR      64  57  76 CALM      30.28R
ORANGE*        CLEAR     70  55  60 CALM      30.29S
LOUISA*        CLEAR     70  55  60 S3        30.28R
BUMPASS*       FAIR      68  56  64 CALM      30.28S
FARMVILLE*     CLEAR     67  56  67 SW3       30.29R
CREWE*         FAIR      63  58  85 CALM      30.30S
FORT PICKETT*  FAIR      63  59  88 CALM      30.31R
CHASE CITY*    FAIR      65  61  84 CALM      30.32R
CLARKSVILLE*   FAIR      63  57  82 CALM      30.30R
SOUTH HILL*    CLEAR     62  57  83 CALM      30.37R
LAWRENCEVILLE* FAIR      64  59  82 CALM      30.31R
EMPORIA*       CLEAR     61  55  82 CALM      30.33R
$$

VAZ088>098-250300-
SOUTHEAST VIRGINIA

CITY           SKY/WX    TMP DP  RH WIND       PRES   REMARKS
NORFOLK        CLEAR     69  55  60 S10       30.33R
VIRGINIA BEACH PTCLDY    69  57  65 S7        30.33R
NORFOLK NAVAL  PTCLDY    75  56  51 S7        30.34R
WEST POINT*    CLEAR     72  58  60 S5        30.32R
SALUDA*        FAIR      68  60  75 S7        30.30R
NEWPORT NEWS   CLEAR     76  59  55 S13       30.32R
LANGLEY AFB    CLEAR     71  59  65 S8        30.32R
FORT EUSTIS    CLEAR     72  59  64 S8        30.30R
WILLIAMSBURG*  CLEAR     75  63  64 S8        30.32R
HR EXEC AP*    FAIR      68  57  68 SE7       30.35R
FRANKLIN*      CLEAR     69  57  66 S8        30.33R
WAKEFIELD      PTCLDY    68  58  70 CALM      30.32R
$$

VAZ020-022-025-037-045-250300-
WEST CENTRAL AND SOUTHWEST VIRGINIA

CITY           SKY/WX    TMP DP  RH WIND       PRES   REMARKS
STAUNTON*      CLEAR     71  52  50 S7        30.31R
WAYNESBORO*    FAIR      69  53  57 S6        30.30R
HOT SPRINGS VA CLEAR     62  49  63 S12       30.37R
LYNCHBURG      CLEAR     63  54  72 S3        30.32R
DANVILLE       CLEAR     71  54  54 S3        30.31R
SOUTH BOSTON*  FAIR      65  57  75 CALM      30.31R
MARTINSVILLE   CLEAR     63  56  80 CALM      30.33R
ROANOKE        PTCLDY    71  52  50 SE3       30.32R
BLACKSBURG     CLEAR     65  50  58 S3        30.37R
DUBLIN*        CLEAR     66  52  60 CALM      30.35R
MARION*        CLEAR     67  49  53 CALM      30.37R
HILLSVILLE*    CLEAR     63  51  67 S5        30.36R
RICHLANDS*     FAIR      67  51  55 S6        30.32R
WISE*          CLEAR     70  46  43 S9        30.31R
ABINGDON*      CLEAR     72  49  44 S3        30.30R
$$

MDZ021>025-VAZ099-100-250300-
SOUTHERN MARYLAND AND THE DELMARVA PENINSULA

CITY           SKY/WX    TMP DP  RH WIND       PRES   REMARKS
PATUXENT RIVER CLEAR     68  58  70 S8        30.29R
BAY BRIDGE APT   N/A    N/A N/A N/A SE8       30.28R
LEONARDTOWN    CLEAR     68  57  68 S3        30.30R
DOVER          PTCLDY    69  61  75 S6        30.26R
GEORGETOWN     PTCLDY    63  52  67 S6        30.31R
EASTON         CLEAR     70  60  70 S8        30.32S
CAMBRIDGE      CLEAR     70  59  68 S3        30.29R
SALISBURY      CLEAR     61  52  72 E3        30.31R
OCEAN CITY     CLEAR     64  53  67 SW10      30.32R
WALLOPS ISLAND CLEAR     63  55  75 S14       30.33R
ACCOMACK*      CLEAR     64   1   8 S12       30.32R
$$

NCZ012>017-030>032-250300-
NORTH CENTRAL AND EASTERN NORTH CAROLINA

CITY           SKY/WX    TMP DP  RH WIND       PRES   REMARKS
ROANOKE RAPIDS FAIR      68  55  64 S5        30.32R
RALEIGH        PTCLDY    71  56  58 S5        30.32R
ELIZABETH CITY CLEAR     68  56  65 S7        30.35R
AHOSKIE*       CLEAR     66  56  71 S5        30.34R
EDENTON*       CLEAR     70  57  63 S7        30.35R
CURRITUCK*     CLEAR     68  55  63 CALM      30.35R
KILL DEVIL HLS CLEAR     65  55  70 SE3       30.35R
MANTEO         CLEAR     66  56  69 S5        30.36R
CAPE HATTERAS  CLEAR     64  55  72 E3        30.36S
TARBORO*       FAIR      70  58  66 CALM      30.34R
GOLDSBORO      CLEAR     70  58  64 SE2       30.32R
WASHINGTON     CLEAR     70  56  62 S5        30.35R
GREENVILLE     CLEAR     72  57  60 S7        30.35R
NEW BERN       CLEAR     64  56  75 CALM      30.36R
WILMINGTON     PTCLDY    68  60  75 CALM      30.34R
$$

VAZ048-250300-
ELSEWHERE

CITY           SKY/WX    TMP DP  RH WIND       PRES   REMARKS
HARRISBURG PA  CLOUDY    71  53  52 S6        30.24R
BALTIMORE      MOCLDY    68  59  73 SE6       30.27R
ANNAPOLIS      CLEAR     69  59  70 S9        30.27R
ANDREWS AFB    PTCLDY    69  61  75 S7        30.27R
PHILADELPHIA   MOCLDY    69  54  58 S7        30.28R
HENDERSON NC   CLEAR     66  56  69 CALM      30.32R
GREENSBORO     PTCLDY    69  54  58 S6        30.31R
ROCKY MOUNT    CLEAR     71  56  58 S5        30.33R
$$

VAZ100-250300-
MARINE

STATION/POSITION TIME  TEMP    WIND        PRES    WAVE   SWELL
                       AIR SEA DIR/SP/G            HT/PER HT/PER
                 (UTC) (F)     (DEG/KT/KT) (MB)    (FT/S) (FT/S)
BRANDYWINE LGT   0100   67 64  200/ 16/ 18 1025.6R
CAPE MAY NJ      0100   63 67  170/ 11/ 16 1025.3R
LEWES DE         0100   68 63  200/  5/  9 1025.8R
15NM E FENWICK I 0150   62 60              1026.5R   2/ 4
OCEAN-CITY-INLET 0100   63 66  210/ 12/ 16 1026.0F
WACHAPREAGUE VA  0100   66 72  210/  8/ 12 1026.5F
THOMAS POINT MD  0200   69 66  160/ 17/ 18 1025.7R
GOOSES REEF MD   0200   67 66  170/ 12/ 14 1026.2R   2/ 3
SOLOMONS ISLAND  0100      70                N/A
BISHOPS HEAD MD  0100   69 71  170/ 13/ 15 1025.2S
PINEY POINT MD   0100          220/ 11/ 13   N/A
CAMBRIDGE MD     0100   68 69  170/  4/  8 1025.2F
LEWISETTA VA     0100   69 71              1025.0F
RAPPAHANNOCK LGT 0100          150/ 17/ 19 1026.5F
STINGRAY PT      0200   71 69  190/ 14/ 16 1025.7R   2/ 3
YORK RVR RNG VA  0100   72     170/ 17/ 19 1025.3S
YORKTOWN VA      0100   73 71  170/  3/  4 1025.7S
JAMESTOWN VA     0200   73 74  190/ 12/ 14 1025.5R
DOMINION TERM VA 0100   73     170/ 13/ 16 1026.3R
KIPTOPEKE VA     0100      74  180/ 17/ 21   N/A
CHES BAY BRIDGE  0100   71 68  160/ 12/ 14 1026.1S
CAPE HENRY VA    0100   68     160/  8/ 12 1025.4S
CHESAPEAKE LGHT  0100   65     170/ 18/ 19 1027.3R
WILLOUBY STN VA  0100   73     170/ 13/ 14 1027.0R
CAPE HENRY BUOY  0128      63                N/A     3/ 4
1ST LANDING BUOY 0200      68              1026.5R
CAPE CHARLES BUO 0126      66                N/A     3/ 4   2/ 9
OFFSHORE WE BUOY 0111      62                N/A     2/ 3   2/ 8
64NM E OF VA BCH 0150   64 62  160/  8/ 10 1027.5R   1/ 6   2/ 6
DUCK PIER NC     0100   66 64  150/ 11/ 12 1026.5S
44100 DUCK FRF   0124      64                N/A     2/ 6
44056 DUCK FRF   0111      65                N/A     2/ 7
OREGON INLET NC  0100   66 73  130/  5/  5 1027.8S
HATTERAS NC      0100   71 75   80/  4/  6 1027.4S
DIAMOND SHLS NC  0150   74 78  120/  6/  8 1028.1R   2/ 7   2/ 7
CAPE LOOKOUT NC  0200   73     130/ 10/ 11 1027.6R
$$



USA.gov is the U.S. government's official web portal to all federal, state and local government web resources and services.